Regional Weather Roundup
Issued by NWS Charleston, WV

Home | Current Version | Previous Version | Graphics & Text | Print | Product List | Glossary On
Versions: 1 2 3 4 5 6 7 8 9 10 11 12 13 14 15 16 17 18 19 20 21 22 23 24 25 26 27 28 29 30 31 32 33 34 35 36 37 38 39 40 41 42 43 44 45 46 47 48 49 50
051
ASUS41 KRLX 262310
RWRRLX
West Virginia Regional Weather Roundup
National Weather Service Charleston WV
700 PM EDT THU MAY 26 2016

Note: "fair" indicates few or no clouds below 12,000 feet with no
significant weather and/or obstructions to visibility.

WVZ003-270000-
Northern Panhandle of West Virginia

CITY           SKY/WX    TMP DP  RH WIND       PRES   REMARKS
WHEELING         N/A     78  63  59 SW10      30.02S
$$

WVZ009-270000-
Northwest West Virginia

CITY           SKY/WX    TMP DP  RH WIND       PRES   REMARKS
PARKERSBURG      N/A     78  65  63 S10       30.05F
$$

WVZ006-270000-
Western West Virginia

CITY           SKY/WX    TMP DP  RH WIND       PRES   REMARKS
HUNTINGTON       N/A     78  66  66 S8        30.03F
$$

WVZ015-270000-
West Central West Virginia

CITY           SKY/WX    TMP DP  RH WIND       PRES   REMARKS
CHARLESTON       N/A     78  62  57 S9        30.06F
$$

WVZ022-031-270000-
North Central West Virginia

CITY           SKY/WX    TMP DP  RH WIND       PRES   REMARKS
CLARKSBURG       N/A     79  63  57 W12       30.04S
MORGANTOWN       N/A     79  61  53 CALM      30.04F
$$

WVZ025-035-042-045-270000-
Southern West Virginia

CITY           SKY/WX    TMP DP  RH WIND       PRES   REMARKS
BECKLEY          N/A     72  61  68 VRB6      30.15F
LOGAN            N/A     73  63  68 CALM      30.09F
BLUEFIELD        N/A     71  59  65 W7        30.17F
LEWISBURG        N/A     73  60  64 SW5       30.14F
$$

WVZ047-270000-
Northern Mountains of West Virginia

CITY           SKY/WX    TMP DP  RH WIND       PRES   REMARKS
ELKINS           N/A     78  58  49 SW3       30.09S
$$

WVZ052-270000-
Eastern Panhandle of West Virginia

CITY           SKY/WX    TMP DP  RH WIND       PRES   REMARKS
MARTINSBURG    LGT RAIN  74  66  76 S6        30.02R
PETERSBURG       N/A     75  69  81 N3        30.06S
$$




USA.gov is the U.S. government's official web portal to all federal, state and local government web resources and services.